Weather History for Camarillo, CA

Change the Weather History Date:

Saturday, May 3, 2014

  Actual Average Record
Temperature  
Mean Temperature 67 °F 60 °F  
Max Temperature 80 °F 71 °F 96 °F (2013)
Min Temperature 54 °F 49 °F 40 °F (1964)
Degree Days  
Heating Degree Days 0 5  
Month to date heating degree days 0 16  
Since 1 July heating degree days 1249 1836  
Cooling Degree Days 2 0  
Month to date cooling degree days 19 0  
Year to date cooling degree days 81 20  
Growing Degree Days 18 (Base 50)    
Moisture  
Dew Point 50 °F    
Average Humidity 57    
Maximum Humidity 80    
Minimum Humidity 33    
Precipitation  
Precipitation 0.00 in 0.02 in 0.73 in (2003)
Month to date precipitation 0.00 0.06  
Year to date precipitation 4.18 10.68  
Since 1 July precipitation 5.00 14.92  
Sea Level Pressure  
Sea Level Pressure 29.93 in    
Wind  
Wind Speed 3 mph (SW)    
Max Wind Speed 10 mph    
Max Gust Speed 15 mph    
Visibility 10 miles    
Events      
T = Trace of Precipitation, MM = Missing Value Source: NWS Daily Summary

Daily Weather History Graph

Daily Weather History Graph

Search for Another Location

Airport:

Trip Planner

Search our weather history database for the weather conditions in past years. The results will help you decide how hot, cold, wet, or windy it might be!

Date:

Astronomy

May. 03, 2014 Rise Set
Actual Time 6:04 AM PDT 7:42 PM PDT
Civil Twilight 5:37 AM PDT 8:09 PM PDT
Nautical Twilight 5:05 AM PDT 8:41 PM PDT
Astronomical Twilight 4:31 AM PDT 9:15 PM PDT
Moon 9:40 AM PDT (5/3) 11:50 PM PDT (5/3)
Length of Visible Light 14h 31m
Length of Day
13h 37m
Waxing Crescent, 20% of the Moon is Illuminated
May 3
Waxing Crescent
May 6
First Quarter
May 14
Full
May 21
Last Quarter
May 28
New

Hourly Weather History & Observations

Time (PDT) Temp. Dew Point Humidity Pressure Visibility Wind Dir Wind Speed Gust Speed Precip Events Conditions
12:55 AM 61.0 °F 50.0 °F 67% 29.91 in 10.0 mi SSE 4.6 mph - N/A   Clear
1:55 AM 60.1 °F 51.1 °F 72% 29.92 in 10.0 mi Calm Calm - N/A   Clear
3:55 AM 59.0 °F 51.1 °F 75% 29.92 in 10.0 mi Calm Calm - N/A   Clear
4:55 AM 55.9 °F 46.9 °F 72% 29.92 in 10.0 mi Calm Calm - N/A   Clear
5:55 AM 55.9 °F 44.1 °F 64% 29.92 in 10.0 mi Calm Calm - N/A   Clear
6:55 AM 57.9 °F 44.1 °F 60% 29.93 in 10.0 mi Calm Calm - N/A   Clear
7:55 AM 64.9 °F 45.0 °F 48% 29.94 in 10.0 mi Calm Calm - N/A   Clear
8:55 AM 66.9 °F 48.9 °F 52% 29.95 in 10.0 mi Calm Calm - N/A   Clear
9:55 AM 73.9 °F 46.9 °F 38% 29.95 in 10.0 mi Calm Calm - N/A   Clear
10:55 AM 77.0 °F 48.9 °F 37% 29.96 in 10.0 mi WSW 6.9 mph - N/A   Clear
11:55 AM 77.0 °F 48.9 °F 37% 29.95 in 10.0 mi WSW 9.2 mph - N/A   Clear
1:55 PM 80.1 °F 48.0 °F 32% 29.94 in 10.0 mi WSW 9.2 mph - N/A   Clear
2:55 PM 75.9 °F 51.1 °F 42% 29.93 in 10.0 mi WSW 8.1 mph - N/A   Clear
3:55 PM 73.0 °F 51.1 °F 46% 29.92 in 10.0 mi SW 6.9 mph - N/A   Clear
4:55 PM 72.0 °F 53.1 °F 51% 29.91 in 10.0 mi Variable 5.8 mph - N/A   Clear
5:55 PM 69.1 °F 52.0 °F 54% 29.90 in 10.0 mi SW 4.6 mph - N/A   Clear
6:55 PM 66.9 °F 53.1 °F 61% 29.90 in 10.0 mi SSW 5.8 mph - N/A   Clear
7:55 PM 63.0 °F 52.0 °F 67% 29.91 in 10.0 mi SW 4.6 mph - N/A   Clear
8:55 PM 61.0 °F 51.1 °F 70% 29.92 in 10.0 mi Calm Calm - N/A   Clear
9:55 PM 60.1 °F 51.1 °F 72% 29.95 in 10.0 mi Calm Calm - N/A   Clear
10:55 PM 59.0 °F 51.1 °F 75% 29.95 in 10.0 mi Calm Calm - N/A   Clear
11:55 PM 57.9 °F 51.1 °F 78% 29.95 in 10.0 mi Calm Calm - N/A   Clear